Location: La Fredeussais
(48.1780°N, 1.3980°W)
Time: 21:03:26
(UTC+00:00)

Daily predictions for brighter satellites

Satellite Brightness Start Highest point End
(mag) Time Altitude Azimuth Time Altitude Azimuth Time Altitude Azimuth
SL-16 R/B 2.9 20:37:48 10° SW 20:43:24 60° WNW 20:49:03 10° NNE
Spot 2 Rocket 3.7 20:40:38 10° SSE 20:45:38 59° ENE 20:50:39 10° N
Cosmos 1315 Rocket 4.5 20:42:42 10° NNE 20:45:55 22° ENE 20:49:08 10° ESE
Cosmos 1602 Rocket 3.8 20:42:12 10° SSW 20:46:36 75° W 20:51:06 10° N
IGS 5A 3.8 20:43:22 10° SSE 20:47:23 51° ENE 20:51:27 10° N
ATLAS 5 CENTAUR R/B 1.5 20:47:16 10° SSW 20:51:20 62° SE 20:55:55 10° NE
Meteor 2-10 Rocket 3.8 20:47:20 10° NNW 20:52:26 72° W 20:57:40 10° S
Cosmos 2278 Rocket 3.6 20:48:02 10° NNW 20:52:52 28° NE 20:57:40 10° ESE
Cosmos 1844 Rocket 2.8 20:49:52 10° NNW 20:55:29 84° WSW 21:01:03 10° SSE
Nadezhda 1 Rocket 4.3 20:50:45 10° N 20:57:11 79° W 21:03:33 10° S
Cosmos 1709 Rocket 4.3 20:51:24 10° SSE 20:57:29 54° E 21:03:41 10° NNE
USA 267 4.1 20:52:39 10° E 20:58:55 50° NNE 21:05:13 10° NW
SPOT 1/Viking Rocket 3.6 21:01:12 10° SSE 21:06:18 69° ENE 21:11:27 10° N
Cosmos-2242 3.0 21:02:39 10° N 21:07:02 85° E 21:11:24 10° S
Cosmos 1400 Rocket 2.8 21:03:43 10° NNW 21:07:44 90° N 21:11:39 10° S
Cosmos 2221 4.0 21:08:17 10° NNE 21:11:53 24° ENE 21:15:14 11° ESE
Lacrosse 5 rocket 3.7 21:09:31 10° WNW 21:13:05 25° N 21:16:29 10° NE
Resurs 01 Rocket 3.0 21:11:38 10° SSW 21:15:43 36° W 21:19:48 10° NNW
Terra 2.6 21:14:58 12° SE 21:19:05 40° ENE 21:23:32 10° N
SAR-Lupe-2 3.7 21:15:36 10° NNE 21:19:07 52° E 21:22:38 10° S
CZ-4B DEB 4.3 21:23:34 13° SSE 21:26:29 81° ENE 21:29:52 10° N
Cosmos 2322 Rocket 4.0 21:25:04 10° WSW 21:30:10 35° NW 21:35:20 10° NNE
Cosmos 1455 4.0 21:27:07 10° NNW 21:30:30 29° W 21:33:52 10° SSW
Alouette 2 Rocket 4.1 21:27:42 10° NNW 21:31:30 60° WSW 21:36:38 10° S
Cosmos 1758 Rocket 4.4 21:27:57 10° SSW 21:32:20 52° WNW 21:36:45 10° N
USA 245 4.2 21:32:46 10° S 21:36:01 43° W 21:40:06 10° NNW
NOSS 3-3 (A) 3.9 21:32:48 10° SSW 21:38:33 62° ESE 21:45:02 10° NE
NOSS 3-3 (C) 4.0 21:32:54 10° SSW 21:38:39 61° ESE 21:45:09 10° NE
Cosmos 1538 Rocket 4.0 21:40:47 10° SSW 21:46:06 73° ESE 21:51:27 10° NNE
COSMOS 2428 2.7 21:47:03 10° SSW 21:52:42 77° ESE 21:58:24 10° NNE
Cosmos 2084 3.6 21:48:40 10° NW 21:53:07 69° SW 21:56:03 21° SSE
Cosmos 2322 4.1 21:49:49 10° SW 21:55:30 67° WNW 22:01:14 10° NNE
Cosmos 1953 Rocket 4.2 21:51:23 10° SSW 21:55:36 53° WNW 21:59:53 10° N
ATLAS 2AS CENTAUR R/B 3.3 21:48:40 10° NW 21:56:16 58° NE 22:02:39 13° ESE
Cosmos 2181 Rocket 4.2 21:50:01 10° NNW 21:56:20 72° W 22:02:02 13° S
DELTA 2 R/B (1) 4.5 21:52:23 10° SW 21:56:57 26° SSE 22:01:15 11° ESE
ATLAS CENTAUR R/B 1.4 21:55:19 10° NW 21:58:56 54° SW 22:00:56 23° SSE
Cosmos 2074 Rocket 4.1 21:54:31 15° S 21:59:45 64° E 22:05:54 10° NNE
Cosmos 1869 3.4 21:56:10 10° N 22:00:09 67° E 22:02:34 23° SSE
BREEZE-M DEB (TANK) 2.3 21:54:40 10° W 22:00:43 72° N 22:03:22 10° E
ERS-1 Rocket 3.4 21:56:48 14° S 22:01:07 58° W 22:06:07 10° NNW
Genesis I 4.4 22:00:58 22° SE 22:01:38 23° ESE 22:04:46 10° ENE
Cosmos 2237 Rocket 2.7 21:59:40 17° SSE 22:03:29 40° ESE 22:08:46 10° NE
Cosmos 1842 Rocket 3.5 21:59:21 10° N 22:03:43 89° ENE 22:06:35 21° S
Cosmos 2219 Rocket 2.3 21:58:41 10° SSW 22:04:17 81° WNW 22:09:56 10° NNE
SPOT 5 3.3 22:02:26 15° S 22:06:30 58° WSW 22:11:14 10° NNW
Cosmos 2360 Rocket 4.0 22:02:14 10° WSW 22:07:21 34° NW 22:12:31 10° NNE
USA 215 3.2 22:02:06 10° ENE 22:08:39 68° SE 22:15:10 10° SW
Cosmos 2344 4.1 22:05:02 15° S 22:10:25 36° ESE 22:17:23 10° NE
Cosmos 158 Rocket 4.5 22:09:33 22° SSE 22:12:00 37° ESE 22:16:31 10° NE
Gblst 52 Del rocket 4.4 22:07:06 10° WNW 22:12:46 65° SSW 22:17:16 20° SE
Atlas Centaur 2 4.2 22:14:12 10° SW 22:17:12 14° S 22:17:12 14° S
Cosmos 2333 Rocket 2.7 22:12:53 10° SW 22:18:32 62° WNW 22:24:14 10° NNE
GEOS 3 Rocket 4.3 22:13:24 10° NE 22:18:43 61° NW 22:24:01 10° WSW
ALOS 2 4.4 22:18:57 13° ESE 22:21:33 21° ENE 22:24:53 10° NNE
Cosmos 1315 Rocket 4.0 22:18:48 10° NNW 22:22:37 37° W 22:25:29 16° SSW
Iridium 2 4.4 22:20:41 10° N 22:24:20 40° E 22:25:48 28° SE
Cosmos 967 Rocket 4.5 22:19:02 10° SSW 22:25:29 77° ESE 22:31:58 10° NE
Cosmos 1892 2.6 22:26:26 29° S 22:28:15 76° E 22:32:04 10° NNE
NOSS 0 Rocket 3.9 22:22:21 10° SSW 22:28:29 75° ESE 22:34:40 10° NNE
EO 1 Del DPAF 4.2 22:25:44 10° NE 22:29:04 29° E 22:29:55 27° ESE
Cosmos 2056 Rocket 4.0 22:23:47 10° NNW 22:29:06 53° ENE 22:32:26 22° SE
Meteor 2-2 Rocket 4.5 22:26:17 10° NNW 22:32:05 68° W 22:35:55 21° S
BREEZE-M DEB 4.4 22:28:30 10° WNW 22:32:41 64° SSW 22:49:23 10° SE
MTI 3.8 22:30:29 10° N 22:33:34 70° WNW 22:34:53 30° SSW
Cosmos 1606 4.2 22:32:38 10° NNE 22:35:55 25° ENE 22:37:25 20° ESE
ATLAS 5 CENTAUR R/B 4.0 22:32:38 10° W 22:36:22 27° NNW 22:40:34 10° NNE
Cosmos 2278 Rocket 2.4 22:31:47 10° NNW 22:37:24 63° WSW 22:40:40 25° S
Cosmos 1408 2.6 22:37:57 38° SSE 22:39:04 60° E 22:42:37 10° NNE
Cosmos 2297 4.4 22:34:25 10° NNW 22:39:59 47° NE 22:43:52 19° ESE
Cosmos 1943 Rocket 3.8 22:35:39 10° NNW 22:40:29 27° NE 22:45:17 10° ESE
Cosmos 44 4.0 22:40:50 26° SE 22:41:14 27° ESE 22:44:57 10° ENE
USA 267 3.2 22:36:39 18° SE 22:41:43 83° SW 22:48:19 10° NW
Cosmos 1680 Rocket 3.5 22:39:45 20° SSW 22:43:25 78° ESE 22:48:46 10° NNE
Cosmos 371 Rocket 4.4 22:43:59 10° N 22:48:29 36° ENE 22:51:21 19° ESE
SL-16 R/B 3.0 22:46:35 26° SE 22:48:37 34° ESE 22:53:41 10° NE
Cosmos 2221 3.7 22:45:31 10° NNW 22:49:33 37° W 22:52:05 19° SSW
CREW DRAGON DEMO-1 DEB 3.7 22:53:16 35° E 22:53:16 35° E 22:55:20 10° ENE
Lacrosse 5 rocket 3.3 22:49:40 10° NW 22:53:13 27° NNE 22:56:36 10° ENE
Terra 3.4 22:53:51 15° SW 22:56:57 27° W 23:01:01 10° NW
Cosmos 923 Rocket 4.5 22:56:41 12° SW 23:01:26 61° WNW 23:06:43 10° NNE
Cosmos 1766 Rocket 4.1 23:01:32 33° SE 23:02:54 44° E 23:07:06 10° NNE
Cosmos 1328 Rocket 4.2 23:00:23 10° N 23:04:30 42° ENE 23:06:06 29° ESE
Cosmos 2058 3.9 23:03:49 20° SW 23:06:22 43° WNW 23:10:20 10° N
Okean 3 Rocket 3.7 23:07:34 37° SSE 23:09:07 60° E 23:13:29 10° NNE
Meteor 2-3 Rocket 4.4 23:12:54 27° SE 23:15:15 40° E 23:20:32 10° NNE
TIMED 4.4 23:13:40 33° SSW 23:15:35 90° W 23:19:59 10° NNE
Cosmos 1825 2.2 23:14:44 40° SSW 23:15:58 74° WNW 23:19:46 10° N
Cosmos 1340 3.5 23:15:33 33° ESE 23:16:04 34° E 23:19:31 10° NNE
Cosmos 1624 Rocket 4.1 23:14:08 10° NNW 23:19:19 63° WSW 23:21:30 33° S
NOSS 3-4 (A) 4.1 23:12:32 10° NW 23:19:23 58° WSW 23:23:28 28° S
NOSS 3-4 (C) 4.1 23:12:39 10° NW 23:19:30 58° WSW 23:23:36 28° S
Aureole 2 Rocket 1.9 23:18:01 10° NNW 23:20:49 76° W 23:20:49 76° W
Cosmos 2218 Rocket 4.2 23:17:43 29° SSE 23:20:54 59° E 23:27:05 10° NNE
Cosmos 2366 rocket 4.2 23:21:57 30° SSE 23:25:07 60° E 23:31:21 10° NNE
BREEZE-M DEB (TANK) 4.1 23:24:37 10° W 23:27:08 16° WSW 23:27:08 16° WSW
IRIDIUM 106 4.4 23:26:31 35° SSE 23:28:42 69° E 23:33:54 10° N
Cosmos 2369 Rocket 3.2 23:23:52 10° NNW 23:29:08 40° NE 23:33:19 15° ESE
SL-4 R/B 2.8 23:33:31 22° NNE 23:33:31 22° NNE 23:34:34 10° N
Cosmos 1959 Rocket 4.5 23:30:32 32° S 23:33:33 70° E 23:39:43 10° NNE
Cosmos 2151 3.4 23:32:17 32° SW 23:34:03 57° WNW 23:38:17 10° N
Cosmos 1933 3.2 23:30:29 10° N 23:34:31 84° E 23:35:34 49° SSE
Helios 1A 3.5 23:34:08 33° SE 23:35:36 50° ENE 23:39:37 10° N
COSMOS 2455 3.1 23:31:52 10° NNW 23:37:55 69° NE 23:41:47 23° SE
Thor Agena Rocket 4.1 23:33:57 10° N 23:38:54 52° WNW 23:42:04 21° SW
Genesis I 4.3 23:35:47 13° WSW 23:39:01 43° NW 23:42:46 10° NNE
DELTA 2 R/B (1) 4.2 23:37:36 10° WSW 23:42:01 34° SSW 23:42:01 34° SSW
Cosmos 2341 Rocket 4.2 23:40:08 25° SSW 23:43:51 64° WNW 23:50:04 10° N
ATLAS 2AS CENTAUR R/B 3.4 23:40:07 10° NW 23:47:03 42° WSW 23:50:04 28° SSW
Cosmos 2237 Rocket 3.4 23:42:12 10° WSW 23:47:34 40° NW 23:52:56 10° NNE
Cosmos 1151 Rocket 3.2 23:47:03 10° NNW 23:51:21 61° W 23:52:34 42° SSW
USA 215 4.0 23:45:12 10° NE 23:51:36 56° NNW 23:57:57 10° W
Cosmos 1782 3.1 23:48:09 10° N 23:52:03 55° ENE 23:53:04 41° SE
Cosmos 1408 Rocket 3.5 23:52:07 45° S 23:53:27 87° E 23:57:53 10° N
